Date,TemperatureHighF,TemperatureAvgF,TemperatureLowF,DewpointHighF,DewpointAvgF,DewpointLowF,HumidityHigh,HumidityAvg,HumidityLow,PressureMaxIn,PressureMinIn,WindSpeedMaxMPH,WindSpeedAvgMPH,GustSpeedMaxMPH,PrecipitationSumIn
2013-1-1,32,26,15,31,22,12,95,85,72,30.17,30.02,7,2,13,0.00
2013-1-2,23,16,9,16,12,6,91,82,66,30.29,30.14,4,0,7,0.00
2013-1-3,30,20,6,23,14,2,91,80,56,30.32,30.22,5,1,9,0.00
2013-1-4,31,27,22,23,20,16,82,75,66,30.33,30.25,4,1,9,0.04
2013-1-5,37,28,15,29,22,12,91,79,65,30.40,30.17,7,2,10,0.07
2013-1-6,37,32,26,33,28,23,91,83,75,30.32,30.01,9,2,15,0.13
2013-1-7,35,29,22,27,24,20,92,83,68,30.49,30.26,6,1,10,0.02
2013-1-8,42,30,19,33,25,16,93,83,67,30.37,30.25,5,1,10,0.10
2013-1-9,45,37,27,39,32,25,93,83,75,30.52,30.24,3,1,8,0.24
2013-1-10,41,33,24,32,28,22,95,83,70,30.58,30.18,2,0,6,0.02
2013-1-11,60,49,40,54,45,32,96,86,71,30.18,29.89,8,2,16,0.36
2013-1-12,63,54,44,60,52,43,97,93,80,30.03,29.81,7,2,15,0.00
2013-1-13,65,56,37,60,53,35,95,90,78,30.04,29.73,10,6,18,0.33
2013-1-14,37,28,24,35,24,21,92,84,79,30.45,30.04,7,3,11,0.00
2013-1-15,33,29,24,25,23,21,89,79,69,30.42,30.09,5,1,8,0.00
2013-1-16,36,32,30,30,27,25,89,82,71,30.11,29.96,4,1,9,0.00
2013-1-20,24,23,22,15,15,14,71,69,66,30.21,30.16,3,1,9,0.00
2013-1-21,24,18,9,17,11,1,83,72,52,30.23,30.06,9,3,16,0.00
2013-1-22,15,10,5,4,0,-2,79,64,54,30.39,30.23,6,2,11,0.00
2013-1-23,21,15,8,14,5,0,86,66,43,30.38,30.12,5,1,11,0.00
2013-1-24,20,16,11,14,10,6,87,77,62,30.61,30.12,11,3,16,0.00
2013-1-25,23,19,16,20,14,6,89,79,60,30.52,30.06,3,0,8,0.00
2013-1-26,27,24,14,22,19,11,88,81,72,30.48,30.13,7,2,10,0.00
2013-1-27,34,20,7,24,14,3,90,78,63,30.53,30.34,5,1,9,0.05
2013-1-29,63,60,56,56,54,52,89,82,76,29.94,29.60,9,5,21,0.00
2013-1-30,62,54,33,57,50,29,95,86,77,29.60,29.20,10,6,19,0.54
2013-1-31,33,25,17,29,20,12,87,79,61,29.97,29.42,10,4,18,0.00
2013-2-1,17,12,7,12,6,1,82,74,66,30.41,29.97,10,3,13,0.00
2013-2-2,26,20,10,23,16,5,91,84,74,30.37,30.02,8,2,14,0.00
2013-2-3,24,20,15,21,16,12,90,84,73,30.13,29.93,5,1,9,0.00
2013-2-4,29,22,13,27,19,10,93,87,65,30.13,29.87,6,1,11,0.00
2013-2-5,32,28,24,29,24,21,94,87,76,30.00,29.88,4,2,8,0.05
2013-2-6,32,28,19,29,22,14,88,76,60,30.33,30.00,7,2,12,0.01
2013-2-7,48,35,19,34,27,16,89,74,54,30.28,29.83,5,1,9,0.07
2013-2-8,42,33,24,37,28,19,93,82,75,30.32,29.77,13,6,19,0.14
2013-2-9,36,26,16,22,18,14,92,74,51,30.47,30.31,4,1,5,0.01
2013-2-10,49,38,23,41,26,17,84,64,43,30.31,29.82,11,3,22,0.00
2013-2-11,52,44,36,47,36,26,92,74,56,29.99,29.73,9,5,17,0.00
2013-2-12,45,35,27,30,26,23,87,70,49,30.12,29.93,7,2,11,0.00
2013-2-13,33,29,25,28,25,22,91,86,78,29.93,29.77,6,1,9,0.00
2013-2-14,46,34,25,38,30,23,94,86,75,29.97,29.82,8,3,17,0.00
2013-2-15,35,30,25,31,26,21,92,87,77,30.14,29.97,9,1,12,0.02
2013-2-16,29,22,14,23,16,6,92,80,67,30.14,30.00,9,3,15,0.01
2013-2-17,24,18,13,16,10,6,84,73,57,30.29,30.10,7,3,12,0.00
2013-2-18,50,33,14,37,21,9,84,63,47,30.29,29.76,13,4,22,0.00
2013-2-19,48,31,21,39,26,14,93,83,68,30.07,29.63,13,4,19,0.14
2013-2-20,23,20,16,16,14,11,85,78,68,30.32,30.07,7,3,11,0.00
2013-2-21,27,23,20,19,17,14,86,77,69,30.39,30.21,7,2,12,0.00
2013-2-22,40,32,25,37,28,18,95,87,74,30.23,29.94,6,1,11,0.07
2013-2-23,39,33,27,31,28,23,94,81,63,30.00,29.91,5,1,9,0.01
2013-2-24,35,30,26,26,23,21,87,75,62,30.18,29.94,6,2,10,0.00
2013-2-25,44,32,19,29,24,17,94,72,50,30.23,30.01,2,0,8,0.00
2013-2-26,42,37,30,41,33,24,95,85,65,30.01,29.46,5,1,9,0.56
2013-2-27,42,38,33,41,35,30,94,90,83,29.68,29.48,7,3,15,0.14
2013-2-28,37,34,31,34,31,29,94,90,85,29.92,29.64,9,4,12,0.06
2013-3-1,33,30,27,29,26,20,87,83,74,30.06,29.92,6,3,9,0.00
2013-3-2,29,26,25,23,22,20,86,82,78,30.08,30.02,8,5,14,0.00
2013-3-3,31,26,23,21,19,16,86,74,62,30.09,30.02,8,4,12,0.00
2013-3-4,39,28,15,26,18,12,93,69,42,30.20,30.07,5,1,7,0.00
2013-3-5,38,34,30,31,28,23,94,78,65,30.11,29.58,2,0,7,0.07
2013-3-6,36,33,30,32,30,27,95,88,82,30.23,29.58,9,3,12,0.35
2013-3-7,37,34,31,31,28,26,86,81,73,30.38,30.21,7,3,11,0.24
2013-3-8,42,34,26,31,27,21,90,76,60,30.49,30.37,5,1,9,0.04
2013-3-9,54,40,24,35,29,22,94,69,43,30.41,30.07,5,1,10,0.00
2013-3-10,68,57,46,40,35,31,68,46,29,30.08,29.83,9,3,18,0.01
2013-3-11,61,50,40,50,44,34,95,81,39,29.85,29.53,12,3,23,0.64
2013-3-12,39,36,31,34,31,29,93,82,72,30.02,29.80,8,1,12,0.01
2013-3-13,34,30,26,30,24,18,94,80,69,30.28,29.99,11,5,21,0.02
2013-3-14,41,31,22,26,21,16,80,67,48,30.33,30.16,5,2,11,0.01
2013-3-15,49,38,27,40,32,22,94,78,63,30.17,29.85,4,1,10,0.15
2013-3-16,48,40,32,45,38,28,95,92,86,30.03,29.61,11,3,15,0.10
2013-3-17,37,33,31,29,27,25,89,79,67,30.19,30.03,6,1,8,0.00
2013-3-18,49,39,31,48,37,26,96,91,76,30.09,29.60,7,2,15,0.73
2013-3-19,38,34,28,34,24,19,92,70,53,30.04,29.78,11,4,18,0.01
2013-3-20,35,29,22,22,18,13,72,62,54,30.04,29.93,9,3,14,0.00
2013-3-21,31,24,17,22,16,12,84,72,60,30.02,29.94,7,3,13,0.00
2013-3-22,42,33,22,25,20,16,81,60,41,30.07,30.00,9,2,11,0.00
2013-3-23,47,33,20,28,23,18,93,69,39,30.09,29.98,6,1,11,0.00
2013-3-24,37,34,30,29,25,22,91,70,55,29.99,29.45,4,1,8,0.00
2013-3-25,34,32,30,31,30,28,94,91,87,29.89,29.40,13,4,19,0.19
2013-3-26,42,34,31,34,30,26,93,83,57,30.18,29.89,9,5,13,0.13
2013-3-27,44,37,33,32,28,23,86,72,50,30.26,30.17,10,4,18,0.00
2013-3-28,50,38,28,32,27,22,81,65,47,30.32,30.25,10,4,13,0.00
2013-3-29,54,39,26,34,28,23,92,67,41,30.32,30.21,8,1,12,0.00
2013-3-30,57,42,25,34,27,22,94,62,32,30.26,29.98,6,1,10,0.00
2013-4-1,43,37,30,23,19,17,59,49,42,30.12,30.02,9,5,15,0.00
2013-4-2,45,33,22,23,18,15,77,56,37,30.27,30.11,8,3,13,0.00
2013-4-3,46,34,22,22,16,12,69,50,29,30.44,30.27,9,2,17,0.00
2013-4-4,53,38,25,22,15,8,71,44,17,30.39,29.99,4,1,8,0.00
2013-4-5,56,41,27,36,26,22,85,57,34,30.18,29.96,9,2,18,0.00
2013-4-6,59,46,30,24,19,10,66,38,21,30.27,29.92,8,2,14,0.00
2013-4-7,74,62,53,47,39,23,65,44,30,29.97,29.82,8,4,18,0.00
2013-4-8,71,61,49,54,49,41,90,67,50,29.97,29.84,8,3,17,0.00
2013-4-9,82,67,51,59,54,48,92,66,41,30.05,29.86,10,3,20,0.00
2013-4-10,82,69,57,65,59,54,94,72,52,29.91,29.73,23,3,44,0.08
2013-4-11,57,57,56,56,55,54,96,95,93,29.84,29.75,2,0,3,0.00
2013-4-16,76,64,54,64,58,52,95,83,61,30.15,30.02,15,3,21,0.24
2013-4-17,67,58,51,60,55,50,96,88,76,30.22,29.98,11,1,17,0.08
2013-4-18,84,72,59,65,58,54,92,66,39,29.99,29.59,13,6,21,0.00
2013-4-19,74,51,39,59,42,30,92,71,49,29.91,29.35,10,4,22,0.60
2013-4-20,46,39,32,33,29,26,85,69,50,30.43,29.91,8,3,14,0.00
2013-4-21,54,41,27,31,27,23,87,58,36,30.58,30.42,5,1,7,0.00
2013-4-22,68,50,30,43,34,27,91,59,32,30.42,30.16,5,1,10,0.00
2013-4-23,72,58,42,50,40,32,85,54,35,30.17,29.89,8,3,16,0.00
2013-4-24,49,41,35,47,38,32,94,87,80,30.19,29.74,10,4,16,0.59
2013-4-25,56,43,32,40,34,26,94,71,46,30.38,30.18,10,3,16,0.01
2013-4-26,62,47,30,38,32,27,94,61,30,30.48,30.36,4,1,8,0.00
2013-4-27,70,54,35,46,36,32,96,58,25,30.37,30.11,6,2,14,0.00
2013-4-28,64,58,55,59,56,54,96,92,81,29.92,29.80,5,2,12,0.57
2013-4-29,65,59,52,58,55,50,97,87,70,29.96,29.85,4,0,7,0.20
2013-4-30,76,61,46,58,52,45,97,76,48,30.06,29.96,5,1,12,0.00
2013-5-1,82,66,50,63,55,49,97,71,41,30.19,30.05,4,1,9,0.00
2013-5-2,75,66,56,59,53,50,81,64,50,30.23,30.09,6,2,13,0.00
2013-5-3,78,67,55,55,47,34,93,54,23,30.11,29.98,7,3,21,0.00
2013-5-4,72,64,55,50,45,39,72,51,36,30.05,29.95,6,2,15,0.00
2013-5-5,72,63,51,48,43,34,79,50,31,30.01,29.90,4,0,7,0.00
2013-5-6,67,61,54,59,49,34,90,69,34,29.98,29.91,3,0,6,0.04
2013-5-7,72,61,56,61,56,53,95,85,58,29.97,29.90,4,0,12,0.21
2013-5-8,71,61,51,58,55,50,96,80,51,29.97,29.90,4,0,6,0.00
2013-5-9,81,66,50,62,54,47,96,70,35,29.98,29.91,4,1,8,0.00
2013-5-10,72,63,58,64,60,57,96,89,72,29.93,29.75,8,1,13,0.69
2013-5-11,61,52,45,60,49,39,95,87,74,29.95,29.78,9,3,14,0.02
2013-5-12,53,44,37,39,35,31,93,71,48,30.12,29.95,9,3,17,0.00
2013-5-13,56,45,33,38,33,28,94,66,39,30.19,30.10,6,2,13,0.00
2013-5-14,76,58,36,56,44,34,94,64,38,30.15,29.78,9,3,19,0.00
2013-5-15,88,76,65,64,59,56,77,58,38,29.80,29.72,6,2,14,0.01
2013-5-16,79,72,60,64,58,49,91,64,38,29.94,29.75,4,1,13,0.05
2013-5-17,82,67,56,66,59,54,97,78,40,30.06,29.93,4,1,8,0.00
2013-5-18,80,67,59,68,60,55,94,81,57,30.07,29.95,1,0,4,0.04
2013-5-19,83,71,58,69,63,56,96,79,56,29.99,29.88,4,1,11,0.00
2013-5-20,87,75,64,71,66,62,96,76,51,29.96,29.83,7,2,17,0.00
2013-5-21,88,78,69,67,64,60,89,65,41,29.88,29.74,4,1,12,0.00
2013-5-22,82,72,64,69,62,60,92,73,50,29.80,29.67,9,3,18,0.15
2013-5-23,73,62,48,63,57,44,94,85,57,30.03,29.73,10,3,19,0.40
2013-5-24,59,50,42,45,40,38,89,72,50,30.32,30.03,11,5,17,0.00
2013-5-25,64,51,36,48,41,35,96,70,44,30.39,30.23,5,1,9,0.00
2013-5-26,70,54,39,43,39,33,96,63,27,30.33,30.20,3,1,6,0.00
2013-5-27,69,58,47,54,48,40,92,72,52,30.24,29.98,5,1,12,0.07
2013-5-28,84,73,62,68,61,53,95,68,45,30.00,29.89,7,2,17,0.06
2013-5-29,89,78,68,65,60,52,75,56,30,30.02,29.93,7,2,16,0.00
2013-5-30,88,77,64,68,64,60,91,65,42,30.11,29.96,7,2,17,0.00
2013-5-31,87,73,65,69,65,61,95,77,48,30.02,29.89,8,2,20,0.30
2013-6-1,82,74,66,69,67,64,96,80,60,29.94,29.70,8,3,21,0.17
2013-6-2,77,70,64,67,62,58,93,77,56,29.88,29.73,5,2,12,0.00
2013-6-3,68,59,51,58,53,48,92,79,64,30.06,29.88,6,3,10,0.00
2013-6-4,76,60,43,53,47,41,96,66,38,30.17,30.06,4,0,7,0.00
2013-6-5,82,67,51,60,53,46,86,62,38,30.11,29.85,3,0,6,0.00
2013-6-6,68,62,58,63,59,55,96,91,67,29.87,29.75,6,2,9,0.17
2013-6-7,66,59,55,58,55,52,94,86,75,29.89,29.80,5,1,8,0.00
2013-6-8,76,63,52,59,54,50,96,76,46,30.04,29.88,2,0,5,0.01
2013-6-9,82,71,61,66,61,57,90,71,44,30.07,29.89,6,2,14,0.01
2013-6-10,79,70,66,68,64,61,95,84,59,29.90,29.71,6,2,11,0.53
2013-6-11,84,73,63,69,64,61,94,76,53,29.91,29.78,5,2,12,0.01
2013-6-12,89,78,65,74,69,63,93,75,59,29.88,29.63,4,1,11,0.00
2013-6-13,81,71,62,72,61,56,95,72,52,29.85,29.58,12,4,23,0.55
2013-6-14,77,66,56,62,58,54,94,76,52,30.03,29.85,7,2,12,0.00
2013-6-15,79,67,51,66,58,50,96,76,47,30.10,29.93,4,0,7,0.00
2013-6-16,80,72,68,68,65,62,93,78,65,29.94,29.88,5,1,13,0.03
2013-6-17,86,75,66,72,66,60,95,77,44,29.93,29.84,4,1,7,0.00
2013-6-18,81,72,62,70,64,57,93,78,56,29.97,29.81,7,2,10,0.00
2013-6-19,80,67,55,57,52,44,92,64,30,30.12,29.97,4,1,8,0.00
2013-6-20,84,69,51,61,55,49,96,65,36,30.20,30.11,2,0,6,0.00
2013-6-21,87,74,57,64,59,52,94,64,30,30.20,30.08,6,1,12,0.00
2013-6-22,89,76,64,74,67,61,96,76,50,30.11,29.99,5,1,9,0.73
2013-6-23,90,77,64,73,67,61,98,74,44,30.10,29.98,6,1,13,0.16
2013-6-24,87,83,76,73,69,65,79,64,54,30.09,29.95,4,2,10,0.00
2013-6-25,91,80,70,77,71,67,91,74,53,30.02,29.82,5,1,11,0.00
2013-6-26,86,74,66,73,68,63,96,82,58,29.90,29.73,6,1,12,0.50
2013-6-27,86,74,68,75,69,65,95,84,65,29.76,29.61,6,1,10,0.03
2013-6-28,83,73,64,72,66,58,94,79,56,29.62,29.50,11,2,17,0.24
2013-6-29,83,68,60,70,62,58,96,83,51,29.65,29.51,4,0,9,0.10
2013-6-30,80,69,62,69,64,60,97,86,63,29.83,29.64,7,0,10,0.00
2013-7-1,77,70,65,71,65,61,94,86,72,29.90,29.80,5,1,10,0.01
2013-7-2,81,74,66,69,66,64,95,79,61,29.99,29.88,4,1,10,0.01
2013-7-3,84,75,66,70,67,64,95,78,55,30.09,29.98,4,1,11,0.01
2013-7-4,75,72,70,70,69,68,95,91,83,30.12,30.06,5,1,10,0.11
2013-7-5,78,71,66,70,68,65,96,90,73,30.12,30.05,3,1,7,0.25
2013-7-6,83,73,69,75,70,66,97,89,67,30.11,29.97,6,1,14,0.09
2013-7-7,82,72,64,71,66,61,95,83,60,30.08,29.97,6,1,12,0.13
2013-7-8,81,72,64,75,69,62,97,92,79,30.10,29.99,3,1,8,0.60
2013-7-9,88,75,71,79,72,68,97,92,69,30.02,29.92,5,1,8,0.43
2013-7-10,90,75,67,80,71,65,97,89,67,29.95,29.75,14,1,22,0.25
2013-7-11,80,71,61,67,63,57,95,76,58,29.99,29.89,6,1,11,0.13
2013-7-12,80,68,56,67,60,55,96,79,55,30.07,29.99,4,1,8,0.05
2013-7-13,84,74,62,71,66,60,96,78,58,30.14,30.05,3,0,7,0.04
2013-7-14,90,78,66,76,70,64,97,78,58,30.20,30.12,5,1,10,0.01
2013-7-15,92,81,72,77,72,69,92,76,53,30.27,30.18,3,0,5,0.00
2013-7-16,94,82,70,78,73,69,97,78,50,30.29,30.19,3,0,8,0.00
2013-7-17,94,82,73,79,74,71,97,77,53,30.27,30.12,4,1,7,0.00
2013-7-18,96,83,72,78,74,70,92,74,48,30.15,29.97,3,0,6,0.00
2013-7-19,91,81,74,79,73,70,88,76,58,29.98,29.82,5,1,10,0.00
2013-7-20,80,75,68,74,71,66,96,88,77,29.88,29.78,6,1,9,0.63
2013-7-21,85,76,70,75,70,68,95,82,62,29.93,29.85,3,0,6,0.00
2013-7-22,75,72,69,71,69,67,96,91,84,29.89,29.72,2,0,6,0.61
2013-7-23,89,75,67,77,70,66,97,84,62,29.77,29.64,6,2,9,0.03
2013-7-24,75,68,60,66,60,54,90,76,57,29.98,29.75,6,2,11,0.00
2013-7-25,80,66,52,60,55,50,95,71,45,30.06,29.98,4,1,8,0.00
2013-7-26,81,68,54,64,58,52,97,73,46,30.07,29.93,4,1,10,0.00
2013-7-27,76,67,62,68,62,58,95,85,61,29.93,29.78,5,1,11,0.30
2013-7-28,72,63,53,59,54,51,96,75,51,30.01,29.85,4,1,9,0.00
2013-7-29,78,66,58,62,56,53,90,71,50,30.16,30.01,4,1,8,0.00
2013-7-30,81,68,55,64,59,54,97,76,46,30.21,30.10,2,0,7,0.00
2013-7-31,74,69,65,67,64,62,95,86,75,30.10,29.90,4,1,9,0.11
2013-8-1,83,72,67,70,66,62,96,81,53,29.92,29.85,5,1,8,0.03
2013-8-2,78,69,58,66,61,55,95,76,50,30.00,29.88,5,1,9,0.00
2013-8-3,82,71,62,70,65,60,96,81,56,29.97,29.91,5,1,8,0.19
2013-8-4,78,66,59,62,58,55,93,76,52,30.10,29.97,7,2,13,0.00
2013-8-5,79,65,52,62,57,50,97,76,49,30.11,29.96,3,0,7,0.00
2013-8-6,81,72,63,64,61,58,88,69,49,29.98,29.89,4,1,10,0.00
2013-8-7,86,76,67,74,69,63,91,80,65,29.91,29.82,4,1,10,0.00
2013-8-8,84,74,70,75,71,69,97,91,70,29.92,29.85,7,1,18,1.84
2013-8-9,82,71,64,70,67,62,97,88,61,30.00,29.85,4,1,9,0.34
2013-8-10,86,73,64,71,66,63,97,79,51,30.07,29.99,3,0,7,0.00
2013-8-11,84,72,63,73,66,62,96,83,63,30.06,29.98,5,1,9,0.00
2013-8-12,85,73,62,70,65,60,96,77,56,30.04,29.83,4,1,9,0.00
2013-8-13,76,68,55,66,61,50,95,79,58,30.00,29.78,9,3,14,0.00
2013-8-14,70,58,49,57,51,46,93,78,59,30.15,30.00,4,1,9,0.00
2013-8-15,77,64,49,60,54,47,94,72,48,30.16,30.08,3,1,6,0.00
2013-8-16,76,64,51,60,55,50,96,76,50,30.15,30.10,2,0,5,0.00
2013-8-17,82,68,56,65,58,54,94,75,48,30.18,30.11,2,0,4,0.00
2013-8-18,80,67,57,67,61,55,96,83,61,30.17,30.08,3,0,6,0.00
2013-8-19,83,71,62,68,63,59,96,78,47,30.11,30.03,3,0,6,0.00
2013-8-20,85,71,58,69,63,56,97,77,50,30.16,30.07,2,0,3,0.00
2013-8-21,85,71,60,72,64,59,97,81,57,30.14,30.01,3,0,7,0.00
2013-8-22,85,73,64,74,67,61,95,83,65,30.08,29.96,6,1,10,0.02
2013-8-23,85,73,62,70,65,57,95,78,52,30.13,29.99,4,1,9,0.01
2013-8-24,86,69,54,65,58,52,96,73,43,30.26,30.12,2,0,6,0.00
2013-8-25,87,71,57,65,60,53,96,70,38,30.32,30.18,4,1,8,0.00
2013-8-26,89,74,60,74,65,58,95,75,48,30.22,30.00,6,1,10,0.00
2013-8-27,85,77,68,76,71,65,92,83,69,30.01,29.88,5,1,8,0.00
2013-8-28,86,79,72,77,73,69,92,82,71,29.93,29.77,6,2,12,0.02
2013-8-29,87,75,69,74,70,67,96,84,60,30.01,29.92,2,0,5,0.00
2013-8-30,89,75,63,74,67,62,98,78,51,29.97,29.78,3,1,8,0.00
2013-8-31,88,76,67,76,70,65,95,83,62,29.81,29.72,5,1,9,0.32
2013-9-1,85,75,67,72,68,65,95,81,61,29.79,29.70,4,1,9,0.00
2013-9-2,84,74,65,74,68,59,97,83,66,29.84,29.72,7,2,11,0.00
2013-9-3,67,60,54,59,54,51,93,82,69,30.04,29.84,7,2,15,0.00
2013-9-4,85,65,50,63,56,49,96,75,41,30.12,30.03,5,1,9,0.00
2013-9-5,82,65,56,66,56,46,96,76,41,30.19,30.07,5,1,11,0.00
2013-9-6,79,61,47,54,49,41,97,69,27,30.24,30.08,4,0,10,0.00
2013-9-7,84,67,50,67,58,48,95,74,50,30.09,29.90,4,1,9,0.00
2013-9-8,82,73,65,71,66,62,92,79,65,29.99,29.89,7,1,11,0.00
2013-9-9,89,74,61,72,65,59,95,75,52,30.01,29.91,6,1,11,0.00
2013-9-10,96,82,72,76,72,68,89,71,48,30.05,29.97,5,2,12,0.00
2013-9-11,89,79,71,77,71,68,90,78,62,30.09,29.93,4,1,10,0.00
2013-9-12,77,74,72,70,69,68,89,84,80,29.93,29.91,1,0,4,0.00
2013-9-15,75,68,58,59,53,48,91,59,40,30.13,30.01,7,2,9,0.05
2013-9-16,72,61,53,58,55,49,96,81,53,30.29,30.08,6,1,9,0.06
2013-9-17,74,58,45,56,50,44,96,77,46,30.34,30.18,2,0,5,0.00
2013-9-18,77,63,51,63,57,49,94,81,60,30.18,30.02,4,1,9,0.00
2013-9-19,74,68,66,68,65,63,94,89,78,30.07,29.94,3,1,8,0.00
2013-9-20,87,74,66,70,67,64,96,81,52,29.97,29.74,7,2,12,0.22
2013-9-21,72,65,55,67,59,48,96,83,56,29.83,29.63,9,3,15,0.74
2013-9-22,66,55,48,49,47,44,92,75,49,30.02,29.83,6,2,11,0.20
2013-9-23,65,52,41,50,45,39,96,79,52,30.14,30.02,2,0,7,0.13
2013-9-24,69,53,40,52,46,38,96,80,50,30.12,29.94,3,0,7,0.10
2013-9-25,71,56,45,56,50,43,97,82,55,29.95,29.87,4,0,6,0.09
2013-9-26,79,60,48,59,51,47,96,76,34,30.08,29.92,3,1,7,0.05
2013-9-27,79,59,45,59,51,43,96,77,44,30.17,30.07,2,0,4,0.00
2013-9-28,78,61,46,59,52,45,97,76,45,30.18,30.05,4,1,8,0.01
2013-9-29,74,62,53,62,57,51,94,84,59,30.06,29.96,4,1,9,0.00
2013-9-30,73,65,60,63,60,57,91,83,67,30.00,29.92,4,1,9,0.00
2013-10-1,78,65,53,65,58,51,97,80,55,30.06,29.97,5,1,13,0.00
2013-10-2,80,67,56,68,62,54,96,86,63,30.09,29.99,4,0,6,0.00
2013-10-3,78,69,64,70,66,62,96,89,69,30.04,29.97,4,1,9,0.07
2013-10-4,82,69,62,70,66,60,96,90,65,30.05,29.99,4,0,8,0.02
2013-10-5,79,69,64,73,67,63,97,93,72,30.03,29.89,4,0,8,0.71
2013-10-6,76,66,52,68,64,50,97,91,72,29.90,29.64,7,2,13,1.15
2013-10-7,60,52,45,52,46,42,95,83,60,30.15,29.74,6,2,15,0.15
2013-10-8,66,49,40,52,44,38,97,84,51,30.29,30.15,3,0,7,0.00
2013-10-9,70,60,46,52,48,44,93,67,45,30.21,30.17,2,0,4,0.01
2013-10-10,74,54,40,54,46,39,96,79,42,30.19,30.06,2,0,4,0.00
2013-10-11,77,58,45,56,49,43,95,76,38,30.11,30.00,3,0,5,0.00
2013-10-12,72,60,49,61,55,47,96,83,66,30.11,30.03,4,0,7,0.00
2013-10-13,67,60,50,60,56,48,96,88,74,30.28,30.10,6,1,9,0.00
2013-10-14,69,56,45,54,48,43,95,79,50,30.33,30.19,4,1,6,0.00
2013-10-15,66,57,45,62,54,43,95,90,84,30.21,29.92,3,1,6,0.00
2013-10-16,66,62,49,62,58,45,95,88,73,29.93,29.83,4,1,11,0.16
2013-10-17,53,47,39,50,44,37,96,89,81,29.95,29.81,4,1,11,0.06
2013-10-18,63,51,42,49,43,40,94,77,49,30.02,29.92,7,2,15,0.00
2013-10-19,48,45,40,44,42,37,94,89,82,29.97,29.80,6,1,10,0.20
2013-10-20,61,48,37,44,40,35,91,74,48,30.02,29.96,6,2,12,0.00
2013-10-21,65,53,42,49,42,37,90,67,41,30.00,29.85,9,3,19,0.03
2013-10-22,50,43,32,45,32,27,91,69,40,30.01,29.88,8,2,13,0.05
2013-10-23,45,39,33,38,35,31,95,87,68,30.01,29.79,9,2,15,0.33
2013-10-24,45,37,30,35,31,27,93,79,56,30.23,30.00,6,1,14,0.00
2013-10-25,47,37,28,36,29,25,91,75,50,30.41,30.23,6,1,12,0.00
2013-10-26,46,38,32,32,28,26,79,67,51,30.27,29.91,9,4,25,0.00
2013-10-27,54,47,33,38,34,30,90,63,43,30.11,30.05,5,1,8,0.00
2013-10-28,59,42,28,40,33,26,95,75,39,30.32,30.09,2,0,5,0.00
2013-10-29,58,44,33,46,38,32,96,81,51,30.39,30.23,3,0,4,0.01
2013-10-30,64,54,45,58,50,42,94,85,74,30.23,29.99,4,1,9,0.00
2013-10-31,65,61,59,61,58,56,95,90,75,29.99,29.29,8,4,21,0.90
2013-11-1,63,55,48,61,48,44,94,79,62,29.71,29.26,8,3,23,0.20
2013-11-2,52,47,42,45,42,39,93,81,62,30.05,29.69,7,2,12,0.05
2013-11-3,52,43,37,40,38,32,93,81,56,30.42,30.05,3,1,7,0.00
2013-11-4,53,44,33,40,34,28,89,71,50,30.46,30.33,5,1,12,0.00
2013-11-5,59,51,45,45,41,39,86,70,56,30.42,30.23,5,1,9,0.00
2013-11-6,64,55,45,57,47,38,93,77,56,30.23,29.92,11,3,19,0.27
2013-11-7,46,42,36,44,34,28,93,75,56,30.19,29.97,11,5,20,0.08
2013-11-8,44,37,30,35,31,28,92,81,59,30.35,30.16,8,1,14,0.01
2013-11-9,59,47,31,39,34,29,92,63,45,30.26,29.97,10,4,24,0.00
2013-11-10,48,41,30,40,32,27,89,71,56,30.33,30.03,11,3,19,0.00
2013-11-11,50,40,27,38,32,25,93,75,45,30.31,30.06,12,3,21,0.08
2013-11-12,32,28,24,29,23,19,93,83,73,30.60,30.25,11,6,18,0.00
2013-11-13,37,29,20,23,20,17,89,71,49,30.63,30.39,6,2,12,0.01
2013-11-14,50,42,29,27,23,21,74,50,34,30.39,30.16,9,4,17,0.02
2013-11-15,51,43,34,40,28,23,80,56,40,30.18,30.10,7,2,12,0.00
2013-11-16,58,51,43,52,46,39,87,83,80,30.16,29.90,7,3,14,0.00
2013-11-17,60,57,50,59,54,41,95,88,67,29.91,29.45,11,6,27,1.23
2013-11-18,50,44,34,41,36,27,83,73,55,30.16,29.70,10,5,23,0.00
2013-11-19,40,35,30,29,27,25,86,72,58,30.39,30.15,8,2,13,0.00
2013-11-20,47,36,26,32,27,23,89,71,52,30.40,30.27,5,1,12,0.00
2013-11-21,54,46,38,45,38,29,92,74,57,30.36,30.20,5,1,9,0.17
2013-11-22,51,46,34,50,43,28,95,90,76,30.35,30.14,12,4,20,0.28
2013-11-23,35,28,19,29,23,10,90,79,63,30.53,30.30,16,6,24,0.00
2013-11-24,26,19,14,14,11,7,82,70,52,30.67,30.53,9,4,13,0.00
2013-11-25,35,26,17,28,17,12,91,68,46,30.55,30.22,8,2,15,0.00
2013-11-26,33,31,30,31,29,27,93,91,89,30.23,29.90,4,1,7,0.04
2013-11-27,31,26,22,28,20,13,90,76,56,30.25,29.87,14,7,20,0.00
2013-11-28,30,26,21,22,19,17,87,76,65,30.45,30.25,6,2,13,0.00
2013-11-29,36,27,17,23,20,14,91,73,55,30.65,30.45,3,0,6,0.02
2013-11-30,42,31,22,32,25,18,89,79,61,30.58,30.19,6,1,10,0.01
2013-12-1,47,36,26,37,31,24,92,83,66,30.19,29.97,5,1,8,0.00
2013-12-2,41,36,32,36,33,29,93,88,80,29.97,29.84,4,1,5,0.05
2013-12-3,51,42,32,45,39,31,95,89,78,29.89,29.82,3,0,8,0.01
2013-12-4,60,52,42,54,48,40,94,85,77,29.91,29.74,7,2,13,0.00
2013-12-5,62,49,32,58,44,29,91,84,72,30.13,29.73,8,4,12,0.09
2013-12-6,32,28,26,29,26,23,93,91,86,30.39,30.09,10,4,13,0.00
2013-12-7,26,22,14,24,17,11,92,80,68,30.62,30.38,7,2,11,0.01
2013-12-8,30,24,14,29,20,12,94,86,78,30.59,30.03,3,0,8,0.00
2013-12-9,33,30,24,31,26,18,95,86,78,30.23,29.98,7,2,14,0.00
2013-12-10,25,21,17,20,15,11,90,77,62,30.35,30.13,8,2,18,0.00
2013-12-11,30,20,11,22,14,7,87,79,68,30.52,30.29,8,3,14,0.00
2013-12-12,18,15,10,8,6,3,77,66,54,30.55,30.34,6,3,12,0.00
2013-12-13,31,24,14,27,16,6,89,72,61,30.35,30.22,4,1,10,0.00
2013-12-14,36,33,30,34,31,27,95,94,89,30.24,29.71,9,1,15,0.01
2013-12-15,30,24,21,29,19,14,94,83,72,30.12,29.79,9,4,16,0.00
2013-12-16,28,22,17,26,18,14,93,84,76,30.20,30.02,3,1,9,0.00
2013-12-17,32,27,25,30,24,21,93,86,80,30.14,29.98,7,3,14,0.00
2013-12-18,28,26,22,23,20,17,90,79,67,30.26,30.06,6,3,13,0.00
2013-12-19,47,38,26,37,29,19,83,70,62,30.09,29.96,7,3,12,0.32
2013-12-20,57,51,47,55,44,34,93,77,58,29.97,29.81,8,5,16,0.09
2013-12-21,64,56,47,61,54,46,97,94,89,29.81,29.43,11,4,19,1.24
2013-12-22,63,53,40,60,49,37,97,86,69,30.00,29.49,11,5,25,0.41
2013-12-23,40,32,26,38,26,19,93,79,67,30.36,29.99,9,3,13,0.01
2013-12-24,26,16,11,22,11,6,89,80,73,30.60,30.33,9,3,16,0.00
2013-12-25,31,23,11,25,16,8,89,74,58,30.56,30.20,7,2,16,0.00
2013-12-26,36,31,28,27,23,17,84,71,51,30.36,30.16,8,3,20,0.00
2013-12-27,44,36,31,32,28,23,79,70,61,30.40,30.26,5,2,10,0.00
2013-12-28,51,40,31,36,31,27,85,71,55,30.25,30.02,7,3,13,0.00
2013-12-29,41,38,31,39,34,26,94,84,65,30.02,29.75,9,2,14,0.27
2013-12-30,31,26,22,27,21,17,87,80,74,30.24,29.98,10,3,15,0.00
2013-12-31,27,23,20,20,17,14,88,78,67,30.37,30.14,7,2,13,0.00
2014-1-1,38,28,19,29,24,16,91,83,68,30.33,30.07,5,0,8,0.00
2014-1-2,28,21,8,24,18,5,92,88,84,30.22,29.82,15,5,25,0.00